When you browse on this site, cookies collect data to enhance your experience and personalize the content and advertising you see.
Visit our Privacy Policy to learn more. By continuing to use the site, you agree to this use of cookies and data.
  • In Hungary
  • List of Countries
  • For 7 days
  • Water Temperature
  • Weather Map
  • News
  • Weather Widgets
  • user-avatar
    Login

    Hourly Weather Salskiy Kagalnik

    Today, 18 October, Friday

    Time Temperature Precipitation Wind Pressure Humidity
    00:00 +12°C° 0 mm 4 mps 764 mmHg 76%
    01:00 +12°C° 0 mm 3 mps 763 mmHg 78%
    02:00 +11°C° 0 mm 3 mps 763 mmHg 80%
    03:00 +11°C° 0 mm 3 mps 763 mmHg 82%
    04:00 +11°C° 0 mm 3 mps 763 mmHg 84%
    05:00 +10°C° 0 mm 3 mps 763 mmHg 87%
    06:00 +10°C° 0 mm 3 mps 762 mmHg 89%
    07:00 +11°C° 0 mm 3 mps 762 mmHg 83%
    08:00 +12°C° 0 mm 3 mps 763 mmHg 78%
    09:00 +14°C° 0 mm 3 mps 763 mmHg 73%
    10:00 +17°C° 0 mm 3 mps 762 mmHg 64%
    11:00 +19°C° 0 mm 3 mps 762 mmHg 56%
    12:00 +21°C° 0 mm 4 mps 762 mmHg 48%
    13:00 +21°C° 0 mm 3 mps 762 mmHg 45%
    14:00 +22°C° 0 mm 3 mps 761 mmHg 43%
    15:00 +24°C° 0 mm 3 mps 761 mmHg 41%
    16:00 +21°C° 0 mm 2 mps 761 mmHg 48%
    17:00 +19°C° 0 mm 2 mps 761 mmHg 54%
    18:00 +17°C° 0 mm 2 mps 761 mmHg 61%
    19:00 +17°C° 0 mm 2 mps 761 mmHg 62%
    20:00 +16°C° 0 mm 2 mps 761 mmHg 64%
    21:00 +15°C° 0 mm 2 mps 761 mmHg 66%
    22:00 +15°C° 0 mm 2 mps 761 mmHg 66%
    23:00 +14°C° 0 mm 2 mps 761 mmHg 67%

    Tomorrow, 19 October, Saturday

    Time Temperature Precipitation Wind Pressure Humidity
    00:00 +14°C° 0 mm 2 mps 761 mmHg 67%
    01:00 +14°C° 0 mm 2 mps 761 mmHg 68%
    02:00 +13°C° 0 mm 2 mps 761 mmHg 68%
    03:00 +13°C° 0 mm 2 mps 761 mmHg 69%
    04:00 +13°C° 0 mm 2 mps 761 mmHg 71%
    05:00 +12°C° 0 mm 2 mps 762 mmHg 72%
    06:00 +12°C° 0 mm 2 mps 762 mmHg 74%
    07:00 +14°C° 0 mm 2 mps 762 mmHg 68%
    08:00 +15°C° 0 mm 2 mps 763 mmHg 63%
    09:00 +16°C° 0 mm 2 mps 763 mmHg 58%
    10:00 +18°C° 0 mm 2 mps 763 mmHg 53%
    11:00 +20°C° 0 mm 3 mps 763 mmHg 48%
    12:00 +22°C° 0 mm 3 mps 763 mmHg 42%
    13:00 +22°C° 0 mm 3 mps 763 mmHg 41%
    14:00 +22°C° 0 mm 3 mps 763 mmHg 40%
    15:00 +24°C° 0 mm 3 mps 762 mmHg 39%
    16:00 +21°C° 0 mm 3 mps 763 mmHg 44%
    17:00 +19°C° 0 mm 3 mps 763 mmHg 50%
    18:00 +17°C° 0 mm 3 mps 763 mmHg 56%
    19:00 +16°C° 0 mm 3 mps 763 mmHg 57%
    20:00 +16°C° 0 mm 3 mps 764 mmHg 59%
    21:00 +14°C° 0 mm 3 mps 764 mmHg 60%
    22:00 +14°C° 0 mm 3 mps 764 mmHg 62%
    23:00 +13°C° 0 mm 3 mps 764 mmHg 63%

    Day after tomorrow, 20 October, Sunday

    Time Temperature Precipitation Wind Pressure Humidity
    00:00 +13°C° 0 mm 3 mps 764 mmHg 64%
    01:00 +13°C° 0 mm 3 mps 764 mmHg 65%
    02:00 +12°C° 0 mm 3 mps 764 mmHg 66%
    03:00 +12°C° 0 mm 3 mps 764 mmHg 67%
    04:00 +12°C° 0 mm 3 mps 765 mmHg 68%
    05:00 +12°C° 0 mm 3 mps 765 mmHg 69%
    06:00 +11°C° 0 mm 3 mps 765 mmHg 70%
    07:00 +13°C° 0 mm 3 mps 766 mmHg 65%
    08:00 +14°C° 0 mm 3 mps 766 mmHg 60%
    09:00 +17°C° 0 mm 3 mps 766 mmHg 55%
    10:00 +18°C° 0 mm 4 mps 766 mmHg 50%
    11:00 +20°C° 0 mm 4 mps 766 mmHg 45%
    12:00 +22°C° 0 mm 4 mps 766 mmHg 40%
    13:00 +22°C° 0 mm 4 mps 766 mmHg 39%
    14:00 +22°C° 0 mm 4 mps 765 mmHg 38%
    15:00 +22°C° 0 mm 4 mps 765 mmHg 38%
    16:00 +21°C° 0 mm 4 mps 765 mmHg 43%
    17:00 +19°C° 0 mm 4 mps 765 mmHg 48%
    18:00 +17°C° 0 mm 3 mps 765 mmHg 53%
    19:00 +16°C° 0 mm 3 mps 766 mmHg 55%
    20:00 +16°C° 0 mm 3 mps 766 mmHg 57%
    21:00 +14°C° 0 mm 3 mps 766 mmHg 59%
    22:00 +14°C° 0 mm 3 mps 766 mmHg 60%
    23:00 +13°C° 0 mm 3 mps 766 mmHg 62%

    21 October, Monday

    Time Temperature Precipitation Wind Pressure Humidity
    00:00 +13°C° 0 mm 3 mps 766 mmHg 63%
    01:00 +12°C° 0 mm 3 mps 766 mmHg 66%
    02:00 +12°C° 0 mm 3 mps 766 mmHg 69%
    03:00 +12°C° 0 mm 3 mps 767 mmHg 72%
    04:00 +11°C° 0 mm 3 mps 767 mmHg 74%
    05:00 +11°C° 0 mm 3 mps 767 mmHg 76%
    06:00 +11°C° 0 mm 3 mps 767 mmHg 78%
    07:00 +12°C° 0 mm 3 mps 767 mmHg 72%
    08:00 +13°C° 0 mm 4 mps 767 mmHg 66%
    09:00 +15°C° 0 mm 4 mps 768 mmHg 59%
    10:00 +17°C° 0 mm 4 mps 768 mmHg 54%
    11:00 +19°C° 0 mm 4 mps 767 mmHg 48%
    12:00 +21°C° 0 mm 4 mps 767 mmHg 43%
    13:00 +21°C° 0 mm 4 mps 767 mmHg 43%
    14:00 +21°C° 0 mm 4 mps 767 mmHg 42%
    15:00 +21°C° 0 mm 4 mps 766 mmHg 42%
    16:00 +19°C° 0 mm 4 mps 766 mmHg 47%
    17:00 +18°C° 0 mm 3 mps 766 mmHg 52%
    18:00 +16°C° 0 mm 3 mps 766 mmHg 58%
    19:00 +14°C° 0 mm 3 mps 766 mmHg 59%
    20:00 +13°C° 0 mm 3 mps 766 mmHg 61%
    21:00 +13°C° 0 mm 3 mps 766 mmHg 63%
    22:00 +12°C° 0 mm 3 mps 766 mmHg 65%
    23:00 +12°C° 0 mm 3 mps 766 mmHg 66%

    22 October, Tuesday

    Time Temperature Precipitation Wind Pressure Humidity
    00:00 +11°C° 0 mm 3 mps 766 mmHg 68%
    01:00 +11°C° 0 mm 3 mps 766 mmHg 69%
    02:00 +10°C° 0 mm 3 mps 766 mmHg 70%
    03:00 +10°C° 0 mm 3 mps 765 mmHg 71%
    04:00 +10°C° 0 mm 2 mps 765 mmHg 72%
    05:00 +9°C° 0 mm 2 mps 765 mmHg 73%
    06:00 +9°C° 0 mm 2 mps 765 mmHg 73%
    07:00 +12°C° 0 mm 2 mps 765 mmHg 68%
    08:00 +13°C° 0 mm 2 mps 765 mmHg 62%
    09:00 +14°C° 0 mm 2 mps 765 mmHg 57%
    10:00 +16°C° 0 mm 2 mps 765 mmHg 53%
    11:00 +18°C° 0 mm 2 mps 765 mmHg 49%
    12:00 +19°C° 0 mm 2 mps 764 mmHg 45%
    13:00 +20°C° 0 mm 2 mps 764 mmHg 43%
    14:00 +20°C° 0 mm 2 mps 764 mmHg 41%
    15:00 +21°C° 0 mm 2 mps 763 mmHg 39%
    16:00 +20°C° 0 mm 1 mps 763 mmHg 44%
    17:00 +18°C° 0 mm 1 mps 763 mmHg 50%
    18:00 +16°C° 0 mm 1 mps 763 mmHg 55%
    19:00 +15°C° 0 mm 1 mps 763 mmHg 58%
    20:00 +15°C° 0 mm 1 mps 763 mmHg 60%
    21:00 +14°C° 0 mm 1 mps 763 mmHg 63%
    22:00 +13°C° 0 mm 1 mps 763 mmHg 65%
    23:00 +13°C° 0 mm 1 mps 763 mmHg 67%

    23 October, Wednesday

    Time Temperature Precipitation Wind Pressure Humidity
    00:00 +13°C° 0 mm 1 mps 763 mmHg 68%
    01:00 +12°C° 0 mm 1 mps 763 mmHg 69%
    02:00 +12°C° 0 mm 1 mps 763 mmHg 70%
    03:00 +11°C° 0 mm 0 mps 763 mmHg 71%
    04:00 +11°C° 0 mm 0 mps 763 mmHg 71%
    05:00 +11°C° 0 mm 0 mps 763 mmHg 72%
    06:00 +10°C° 0 mm 0 mps 763 mmHg 72%
    07:00 +13°C° 0 mm 1 mps 764 mmHg 67%
    08:00 +14°C° 0 mm 1 mps 764 mmHg 62%
    09:00 +15°C° 0 mm 1 mps 765 mmHg 57%
    10:00 +16°C° 0 mm 1 mps 765 mmHg 54%
    11:00 +18°C° 0 mm 2 mps 765 mmHg 50%
    12:00 +19°C° 0 mm 2 mps 765 mmHg 46%
    13:00 +20°C° 0 mm 2 mps 765 mmHg 46%
    14:00 +20°C° 0 mm 3 mps 765 mmHg 47%
    15:00 +20°C° 0 mm 3 mps 765 mmHg 47%
    16:00 +19°C° 0 mm 3 mps 765 mmHg 56%
    17:00 +17°C° 0 mm 3 mps 766 mmHg 64%
    18:00 +14°C° 0 mm 3 mps 766 mmHg 73%
    19:00 +14°C° 0 mm 3 mps 766 mmHg 74%
    20:00 +13°C° 0 mm 3 mps 766 mmHg 76%
    21:00 +13°C° 0 mm 3 mps 767 mmHg 78%
    22:00 +12°C° 0 mm 3 mps 767 mmHg 77%
    23:00 +12°C° 0 mm 3 mps 767 mmHg 77%
    Show more